Location: *
(48.8489°N, 2.3218°E)
Time: 21:41:11
(UTC+00:00)

SJ 16-02 - Pass Details

Date: 23 August 2019
Orbit: 605 x 618 km, 75.0° (Epoch: 18 September)

Event Time Altitude Azimuth Distance (km) Brightness Sun altitude
Exits shadow 19:48:42 - 154° (SSE) 2,174 3.7 -9.4°
Reaches altitude 10° 19:49:21 10° 149° (SSE) 1,967 3.4 -9.5°
Maximum altitude 19:52:44 22° 98° (E) 1,352 2.6 -10.0°
Drops below altitude 10° 19:56:08 10° 48° (NE) 1,985 3.8 -10.5°
Sets 19:58:46 0° 33° (NNE) 2,898 4.8 -10.8°
